This is the latest recevied weather packets stored in our database for station/object W4DEX-2. If no packets are shown the sender has not sent any weather packets the latest 10 day(s).
| Time | Temp. | Humidity | Pressure | Rain* | Wind** | Luminosity | Snow |
|---|---|---|---|---|---|---|---|
| 1778141402 | 17.22° C | 89% | 1009.6 hPa | 1.02 mm | 4.92 m/s, 180° | - | - |
| 1778141103 | 17.22° C | 89% | 1009.6 hPa | 2.29 mm | 4.92 m/s, 180° | - | - |
| 1778140803 | 17.22° C | 89% | 1008.9 hPa | 2.29 mm | 5.81 m/s, 177° | - | - |
| 1778140502 | 17.22° C | 89% | 1009 hPa | 3.56 mm | 5.36 m/s, 177° | - | - |
| 1778140202 | 17.22° C | 89% | 1009.5 hPa | 6.6 mm | 5.36 m/s, 177° | - | - |
| 1778139902 | 17.22° C | 89% | 1010 hPa | 7.11 mm | 4.92 m/s, 172° | - | - |
| 1778139002 | 17.22° C | 89% | 1010.5 hPa | 8.89 mm | 5.36 m/s, 179° | - | - |
| 1778138702 | 17.22° C | 89% | 1010.8 hPa | 7.11 mm | 4.92 m/s, 180° | - | - |
| 1778137802 | 17.22° C | 89% | 1010.7 hPa | 0 mm | 5.36 m/s, 179° | - | - |
| 1778137502 | 17.22° C | 89% | 1011 hPa | 0 mm | 4.92 m/s, 179° | - | - |
| 1778136602 | 17.22° C | 89% | 1011.2 hPa | 1.78 mm | 4.02 m/s, 180° | - | - |
| 1778136302 | 17.22° C | 89% | 1011 hPa | 3.56 mm | 5.36 m/s, 180° | - | - |
| 1778136002 | 17.22° C | 89% | 1011.1 hPa | 3.56 mm | 4.92 m/s, 176° | - | - |
| 1778135702 | 17.22° C | 89% | 1011 hPa | 5.33 mm | 4.92 m/s, 178° | - | - |
| 1778135403 | 17.22° C | 89% | 1011.1 hPa | 6.6 mm | 4.92 m/s, 178° | - | - |
| 1778134802 | 17.22° C | 89% | 1011.7 hPa | 7.62 mm | 4.92 m/s, 178° | - | - |
| 1778134502 | 17.22° C | 89% | 1012 hPa | 10.16 mm | 4.92 m/s, 180° | - | - |
| 1778134202 | 17.22° C | 89% | 1012 hPa | 14.22 mm | 5.36 m/s, 180° | - | - |
| 1778133602 | 17.22° C | 89% | 1012.1 hPa | 2.79 mm | 3.13 m/s, 175° | - | - |
| 1778133302 | 17.22° C | 89% | 1011.9 hPa | 1.78 mm | 3.58 m/s, 179° | - | - |
| 1778133002 | 17.22° C | 89% | 1011.9 hPa | 0 mm | 4.47 m/s, 178° | - | - |
| 1778132402 | 17.22° C | 89% | 1011.4 hPa | 0 mm | 4.47 m/s, 179° | - | - |
| 1778132102 | 17.22° C | 89% | 1011.4 hPa | 0 mm | 4.47 m/s, 180° | - | - |
| 1778131802 | 17.22° C | 89% | 1011.3 hPa | 0 mm | 4.92 m/s, 173° | - | - |
| 1778131203 | 17.22° C | 89% | 1011.4 hPa | 0 mm | 5.36 m/s, 180° | - | - |
* Rain latest hour (hover to see other rain measurements)
** Current wind speed in m/s (hover to see current wind gust speed)